Location: Krakow
(50.0830°N, 19.9170°E)
Time: 06:34:04
(UTC+02:00)

A-11 Canister half - Pass Details

Date: 23 March 2026
Orbit: 1523 x 1684 km, 47.3° (Epoch: 18 April)

Event Time Altitude Azimuth Distance (km) Brightness Sun altitude
Rises 12:19:15 0° 285° (WNW) 4,849 11.6 40.6°
Reaches altitude 10° 12:22:30 10° 281° (W) 3,839 11.2 40.5°
Maximum altitude 12:31:48 53° 208° (SSW) 1,876 11.5 40.1°
Drops below altitude 10° 12:40:48 10° 136° (SE) 3,714 11.4 39.7°
Sets 12:43:54 0° 131° (SE) 4,682 11.8 39.6°
